Location: Brabourne
(51.1333°N, 1.0000°E)
Time: 06:42:58
(UTC+00:00)

ATLAS 3B R/B - Pass Details

Date: 20 June 2021
Orbit: 1003 x 1191 km, 63.8° (Epoch: 21 July)

Event Time Altitude Azimuth Distance (km) Brightness Sun altitude
Rises 00:27:28 0° 270° (W) 3,764 5.5 -15.1°
Reaches altitude 10° 00:30:21 10° 280° (W) 2,834 5.0 -15.1°
Maximum altitude 00:36:18 33° 343° (NNW) 1,712 4.4 -14.9°
Drops below altitude 10° 00:42:30 10° 46° (NE) 2,951 5.9 -14.8°
Sets 00:45:34 0° 56° (NE) 3,941 6.4 -14.7°
